Regional Weather Roundup
Issued by NWS

Home | Current Version | Previous Version | Graphics & Text | Print | Product List | Glossary On
Versions: 1 2 3 4 5 6 7 8 9 10 11 12 13 14 15 16 17 18 19 20 21 22 23 24 25 26 27 28 29 30 31 32 33 34 35 36 37 38 39 40 41 42 43 44 45 46 47 48 49 50
000
ASUS43 KLSX 300959
RWRMO

WEATHER SUMMARY FOR MISSOURI
NATIONAL WEATHER SERVICE SPRINGFIELD MO
500 AM CDT MON MAR 30 2015

NOTE: "FAIR" INDICATES FEW OR NO CLOUDS BELOW 12,000 FEET WITH NO
       SIGNIFICANT WEATHER AND/OR OBSTRUCTIONS TO VISIBILITY.
       CURRENT SKY AND/OR WEATHER CONDITIONS ARE NOT AVAILABLE FOR
       CHILLICOTHE AND FARMINGTON.

MOZ001>031-035>038-043-044-053-054-301100-
...NORTHERN AND WESTERN MISSOURI...

CITY           SKY/WX    TMP DP  RH WIND       PRES   REMARKS
KANSAS CTY INT CLEAR     40  31  70 S6        30.16F
KANSAS C DTWN  CLEAR     41  35  79 SW3       30.17S
LEE`S SUMMIT   CLEAR     44  33  65 SW5       30.17S
CHILLICOTHE      N/A     33  30  88 CALM      30.17S
KIRKSVILLE     PTCLDY    31  27  85 SW5       30.14S WCI  26

$$
MOZ066>068-077>081-088>096-101>105-301100-
...SOUTHWEST MISSOURI...

CITY           SKY/WX    TMP DP  RH WIND       PRES   REMARKS
SPRINGFIELD    CLEAR     34  32  92 SW5       30.18R WCI  30
JOPLIN         CLEAR     37  35  92 SW3       30.22R

$$
MOZ032>034-039>042-045>050-055>058-069>072-301100-
...CENTRAL MISSOURI...

CITY           SKY/WX    TMP DP  RH WIND       PRES   REMARKS
COLUMBIA       CLEAR     40  34  79 NW6       30.17R
JEFFERSON CITY CLEAR     36  35  96 NW5       30.17R
ROLLA          CLEAR     40  34  79 W5        30.14R
SEDALIA        CLEAR     43  34  70 W3        30.18R
OSAGE BEACH    CLEAR     36  32  87 CALM      30.17R

$$
MOZ051-052-059>065-301100-
...EAST CENTRAL MISSOURI...

CITY           SKY/WX    TMP DP  RH WIND       PRES   REMARKS
ST LOUIS INTL  CLEAR     44  36  73 NW8       30.14R
SPIRIT OF STL  CLEAR     36  33  89 SW3       30.15R
ST CHARLES     CLEAR     40  35  83 NW8       30.14R

$$
MOZ072>076-082>087-097>100-106>115-301100-
...SOUTH CENTRAL AND SOUTHEAST MISSOURI...

CITY           SKY/WX    TMP DP  RH WIND       PRES   REMARKS
CAPE GIRARDEAU CLEAR     44  39  82 NW5       30.11R
FARMINGTON     CLEAR     43  36  75 NW3       30.16R
POPLAR BLUFF   CLEAR     46  39  76 NW6       30.12R
WEST PLAINS    CLEAR     45  37  73 N6        30.15S

$$


USA.gov is the U.S. government's official web portal to all federal, state and local government web resources and services.